Preview of NWS' New Version of Forecast
This preview is not operational and should not be used for support decisions.

Regional Weather Roundup (RWR)

Issued by National Weather Service (NWS)

                            
000
ASUS42 KTBW 221316
RWRFL 
FLORIDA REGIONAL WEATHER ROUNDUP
NATIONAL WEATHER SERVICE TAMPA BAY RUSKIN FL
900 AM EDT WED MAY 22 2019

NOTE: "FAIR" INDICATES FEW OR NO CLOUDS BELOW 12,000 FEET WITH NO
SIGNIFICANT WEATHER AND/OR OBSTRUCTIONS TO VISIBILITY.

FLZ001>010-012>015-112-114-115-221400-
PANHANDLE FLORIDA
  
CITY           SKY/WX    TMP DP  RH WIND       PRES   REMARKS
PENSACOLA      PTSUNNY   79  72  79 S10       30.03R                  
PENSACOLA NAS  PTSUNNY   80  72  76 S13       30.02R                  
MILTON NAS     FAIR      73  72  96 SE5       30.04R                  
CRESTVIEW      FAIR      71  66  84 CALM      30.07R                  
DUKE FIELD     FAIR      73  73 100 CALM      30.05R                  
VALPARAISO     FAIR      79  72  78 SE5       30.04R                  
MARY ESTHER    FAIR      79  71  74 SE5       30.03R                  
PANAMA CITY    FAIR      76  68  76 E6        30.05R                  
TYNDALL AFB    FAIR      78  70  76 E5        30.05R                  
APALACHICOLA   FAIR      79  68  69 E6        30.06R                  

STATION/POSITION SKY/WX   TEMP    WIND        PRES    WAVE   SWELL
                          AIR SEA DIR/SP/G            HT/PER HT/PER
                          (F)     (DEG/KT/KT) (MB)    (FT/S) (FT/S)
30.1N   87.6W                                   N/A     3/ 6
29.2N   88.2W                     150/ 12/ 14 1016.0R   3/ 6   2/ 6
PANAMA CITY BEAC           77 81   70/  6/  8 1017.8R
TOWER C          NOT AVBL

$$
FLZ011-016>038-118-127-128-134-139-239-221400-
NORTH FLORIDA
  
CITY           SKY/WX    TMP DP  RH WIND       PRES   REMARKS
MARIANNA       FAIR      76  67  73 CALM      30.06R                  
TALLAHASSEE    FAIR      78  68  71 CALM      30.07R                  
PERRY          FAIR      79  72  78 CALM      30.07S                  
LIVE OAK       MOSUNNY   79  72  78 CALM      30.07S                  
CROSS CITY     FAIR      79  72  81 SE5       30.07R                  
LAKE CITY      FAIR      77  68  73 SE6       30.09S                  
GAINESVILLE    FAIR      81  70  69 SE7       30.11R                  
WILLISTON      FAIR      78  70  74 S6        30.08R                  
PALATKA        FAIR     N/A N/A N/A S9        30.09S                  
MAYPORT NAS    FAIR      81  69  67 S8        30.10R                  
JACKSONVILLE   FAIR      80  70  71 S6        30.08S                  
JAX NAS        FAIR      78  69  73 S7        30.10R                  
JAX CECIL      SUNNY     81  70  69 SE6       30.09R                  
FERNANDINA BEA FAIR      79  70  72 S10       30.10S                  
ST AUGUSTINE   FAIR      80  69  69 S6        30.10S                  
PALM COAST     SUNNY     79  70  73 VRB3      30.09R                  

STATION/POSITION SKY/WX   TEMP    WIND        PRES    WAVE   SWELL
                          AIR SEA DIR/SP/G            HT/PER HT/PER
                          (F)     (DEG/KT/KT) (MB)    (FT/S) (FT/S)
SHELL POINT      NOT AVBL
KEATON BEACH               79      80/  3/  4 1018.0S
CEDAR KEY                  79     160/  9/ 10 1017.7R
FERNANDINA                 82 82  170/  7/ 11 1019.8R
30.7N   81.3W                 79                N/A     3/ 5
MAYPORT                    78 81  170/  5/  7 1019.4R
31.4N   80.9W              78 77  220/  8/ 12 1019.2R   3/ 5   2/ 5
ST AUGUSTINE               77 80  170/  7/  7 1019.3R

$$
FLZ040-043>046-052-053-057-058-063-144-221400-
INTERIOR CENTRAL FLORIDA
  
CITY           SKY/WX    TMP DP  RH WIND       PRES   REMARKS
OCALA          FAIR      79  69  71 S6        30.08R                  
LEESBURG       FAIR      78  68  71 SE8       30.09R                  
SANFORD        FAIR      79  68  69 SE8       30.08R                  
ORLANDO EXEC   FAIR      79  66  64 SE8       30.08R                  
ORLANDO INTL   FAIR      78  66  66 E7        30.08R                  
KISSIMMEE      FAIR      78  68  71 E7        30.09R                  
WINTER HAVEN   FAIR      79  68  69 E7        30.09R                  
LAKELAND       SUNNY     79  70  73 SE6       30.08R                  
BARTOW         SUNNY     79  68  69 E7        30.07R                  
SEBRING        FAIR      78  67  70 E8        30.07S                  
OKEECHOBEE     FAIR      77  68  73 E5        30.06S                  

$$
FLZ041-047-054-059-064-141-147-221400-
EAST CENTRAL FLORIDA
  
CITY           SKY/WX    TMP DP  RH WIND       PRES   REMARKS
ORMOND BEACH   SUNNY     77  70  78 CALM      30.09R                  
DAYTONA BEACH  FAIR      78  70  76 VRB3      30.09R                  
DELAND         FAIR      79  68  69 SE8       30.09R                  
NEW SMYRNA BEA SUNNY     79  68  69 VRB3      30.10R                  
JFK SPACE CTR  FAIR      80  69  70 E3        30.08R                  
TITUSVILLE     SUNNY     81  70  69 CALM      30.09R                  
CAPE CANAVERAL FAIR      80  55  42 E5        30.07R                  
PATRICK AFB    FAIR      79  69  71 E5        30.07S                  
MELBOURNE      FAIR      81  68  64 E5        30.07S                  
VERO BEACH     FAIR      80  66  62 E5        30.07R                  
FT PIERCE      FAIR      80  66  62 VRB3      30.07R                  
STUART         MOSUNNY   81  64  57 NE5       30.08R                  

STATION/POSITION SKY/WX   TEMP    WIND        PRES    WAVE   SWELL
                          AIR SEA DIR/SP/G            HT/PER HT/PER
                          (F)     (DEG/KT/KT) (MB)    (FT/S) (FT/S)
28.5N   80.2W              79     110/  4/  4 1019.1R   2/ 7   2/ 7
28.9N   78.5W              80 79   CALM  /  2 1019.7R   2/ 8   2/ 8
TRIDENT PIER               79 82  120/  5/  6 1019.8R
28.4N   80.5W                 80                N/A     2/ 4
27.5N   80.2W                 79                N/A     2/ 4

$$
FLZ050-056-061-142-242-148-248-149-249-151-251-155-255-
160-260-221400-
WEST CENTRAL FLORIDA
  
CITY           SKY/WX    TMP DP  RH WIND       PRES   REMARKS
CRYSTAL RIVER  FAIR      79  70  73 SE6       30.07R                  
INVERNESS      FAIR      79  73  83 SE6       30.08S                  
BROOKSVILLE    FAIR      79  70  74 SE7       30.07R                  
CLEARWATER AIR FAIR      81  70  69 SE5       30.05S                  
ST PETE CLEARW FAIR      81  71  71 SE6       30.05R                  
TAMPA INTL     FAIR      80  70  71 VRB6      30.06R                  
TAMPA EXEC     FAIR      79  70  73 S5        30.07R                  
PLANT CITY     FAIR      81  70  69 SE6       30.09R                  
MACDILL AFB    FAIR      80  71  74 SE7       30.05S                  
PETER O KNIGHT CLOUDY    81  72  74 S5        30.06S                  
ST PETERSBURG  FAIR      81  72  74 SE7       30.06                   
SARASOTA       FAIR      81  70  69 SE7       30.03R                  
VENICE         FAIR      82  72  69 SE8       30.05R                  

STATION/POSITION SKY/WX   TEMP    WIND        PRES    WAVE   SWELL
                          AIR SEA DIR/SP/G            HT/PER HT/PER
                          (F)     (DEG/KT/KT) (MB)    (FT/S) (FT/S)
27.3N   84.2W                 80                N/A     1/ 6
CLEARWATER BEACH           79 84  140/  6/  7 1017.7R
MIDDLE TAMPA BAY           79     160/  7/  8 1017.6R
VENICE                     77 83  120/  4/  5 1017.0R

$$
FLZ066-069-070-075>078-162-262-165-265-221400-
SOUTHWEST FLORIDA AND KEYS
  
CITY           SKY/WX    TMP DP  RH WIND       PRES   REMARKS
PUNTA GORDA    FAIR      79  69  71 SE7       30.06R                  
FT MYERS       FAIR      79  70  74 E6        30.04R                  
SOUTHWEST INTL FAIR      78  71  79 E5        30.04R                  
NAPLES         FAIR      79  70  74 E8        30.03R                  
MARCO ISLAND   FAIR      79  70  74 E7        30.04R                  
IMMOKALEE      FAIR      81  70  69 E5        30.03R                  
MARATHON       PTSUNNY   86  72  62 E7        30.00R                  
KEY WEST NAS   FAIR      86  72  62 E9        30.01R                  
KEY WEST INTL  FAIR      83  72  69 E7        30.01R                  

STATION/POSITION SKY/WX   TEMP    WIND        PRES    WAVE   SWELL
                          AIR SEA DIR/SP/G            HT/PER HT/PER
                          (F)     (DEG/KT/KT) (MB)    (FT/S) (FT/S)
NAPLES                     80 84              1016.8R
DRY TORTUGAS               81     130/ 12/ 14 1015.6
SAND KEY                   81                 1016.0R
SOMBRERO KEY               81                 1015.5R

$$
FLZ067-068-071>074-168-172>174-221400-
SOUTHEAST FLORIDA 
  
CITY           SKY/WX    TMP DP  RH WIND       PRES   REMARKS
W PALM BEACH   FAIR      82  64  54 E9        30.06R                  
BOCA RATON     MOSUNNY   82  66  57 NE8       30.05R                  
FT LAUDER-EXEC FAIR      81  65  58 E5        30.04R                  
FT LAUDERDALE  FAIR      81  66  60 CALM      30.04R                  
POMPANO BEACH  FAIR      83  65  54 NE8       30.05R                  
PEMBROKE PINES FAIR      80  66  62 NE5       30.06R                  
OPA LOCKA      FAIR      82  66  58 NE8       30.05R                  
MIAMI          FAIR      83  67  58 NE7       30.04R                  
WEST KENDALL   FAIR      82  68  62 E7        30.03R                  
HOMESTEAD      FAIR      82  68  62 E5        30.02R                  

STATION/POSITION SKY/WX   TEMP    WIND        PRES    WAVE   SWELL
                          AIR SEA DIR/SP/G            HT/PER HT/PER
                          (F)     (DEG/KT/KT) (MB)    (FT/S) (FT/S)
PORT EVERGLADES            81      50/  6/  9 1017.4R
VIRGINIA KEY               81 84   50/  4/  6 1016.5R
LAKE WORTH                 80 81              1018.8R
SETTLEMENT POINT           79      80/  6/  8 1018.2R

$$